Location: Muenchen
(48.1800°N, 11.5800°E)
Time: 11:57:54
(UTC+02:00)

ISS - All Passes

Search period start: 20 September 2014 00:00
Search period end: 30 September 2014 00:00
Orbit: 413 x 417 km, 51.6° (Epoch: 20 September)

Date Brightness Start Highest point End Pass type
(mag) Time Alt. Az. Time Alt. Az. Time Alt. Az.
20 Sep - 03:04:18 10° S 03:06:50 20° SE 03:09:22 10° E visible
20 Sep - 04:39:53 10° WSW 04:43:13 87° NNW 04:46:34 10° ENE visible
20 Sep - 06:16:57 10° WNW 06:20:10 44° N 06:23:23 10° ENE visible
20 Sep - 07:53:51 10° WNW 07:57:11 66° NNE 08:00:30 10° E daylight
20 Sep - 09:30:46 10° W 09:33:45 30° SW 09:36:42 10° SSE daylight
21 Sep - 02:16:35 10° SSE 02:18:12 13° SE 02:19:48 10° ESE night (unlit)
21 Sep - 03:51:05 10° SW 03:54:23 66° SSE 03:57:42 10° ENE visible
21 Sep - 05:27:59 10° W 05:31:13 47° N 05:34:28 10° ENE visible
21 Sep - 07:04:59 10° WNW 07:08:16 53° NNE 07:11:33 10° E daylight
21 Sep - 08:41:47 10° WNW 08:45:00 46° SSW 08:48:12 10° SE daylight
22 Sep - 03:02:23 10° SW 03:05:34 43° SSE 03:08:46 10° ENE visible
22 Sep - 04:38:58 10° W 04:42:15 55° NNW 04:45:33 10° ENE visible
22 Sep - 06:16:04 10° WNW 06:19:18 46° N 06:22:33 10° E visible
22 Sep - 07:52:50 10° WNW 07:56:09 70° SSW 07:59:28 10° ESE daylight
22 Sep - 09:30:33 10° WSW 09:32:23 14° SW 09:34:12 10° S daylight
23 Sep - 02:13:51 10° SSW 02:16:46 28° SE 02:19:41 10° E night (unlit)
23 Sep - 03:49:58 10° WSW 03:53:17 70° NNW 03:56:37 10° ENE visible
23 Sep - 05:27:04 10° WNW 05:30:17 44° N 05:33:30 10° ENE visible
23 Sep - 07:03:54 10° WNW 07:07:15 83° NNE 07:10:34 10° ESE daylight
23 Sep - 08:41:01 10° W 08:43:39 22° SW 08:46:16 10° SSE daylight
24 Sep - 01:25:35 10° S 01:27:58 19° SE 01:30:22 10° E night (unlit)
24 Sep - 03:00:58 10° WSW 03:04:19 87° SSE 03:07:40 10° ENE visible
24 Sep - 04:38:00 10° WNW 04:41:14 44° N 04:44:27 10° ENE visible
24 Sep - 06:14:56 10° WNW 06:18:15 63° NNE 06:21:33 10° E visible
24 Sep - 07:51:47 10° W 07:54:50 33° SW 07:57:52 10° SSE daylight
25 Sep - 00:37:57 10° SSE 00:39:12 12° SE 00:40:27 10° ESE night (unlit)
25 Sep - 02:12:03 10° SW 02:15:21 60° SSE 02:18:38 10° ENE night (unlit)
25 Sep - 03:48:53 10° W 03:52:08 48° N 03:55:24 10° ENE visible
25 Sep - 05:25:55 10° WNW 05:29:11 51° N 05:32:27 10° E visible
25 Sep - 07:02:40 10° WNW 07:05:56 51° SSW 07:09:10 10° SE daylight
26 Sep - 01:23:15 10° SW 01:26:23 39° SSE 01:29:32 10° ENE night (unlit)
26 Sep - 02:59:44 10° W 03:03:02 58° NNW 03:06:20 10° ENE visible
26 Sep - 04:36:50 10° WNW 04:40:04 45° N 04:43:18 10° E visible
26 Sep - 06:13:36 10° WNW 06:16:56 76° SSW 06:20:15 10° ESE visible
26 Sep - 07:51:08 10° W 07:53:11 16° SW 07:55:14 10° S daylight
27 Sep - 00:34:38 10° SSW 00:37:27 26° SE 00:40:16 10° E night (unlit)
27 Sep - 02:10:35 10° WSW 02:13:55 74° NNW 02:17:16 10° ENE night (unlit)
27 Sep - 03:47:41 10° WNW 03:50:54 43° N 03:54:07 10° ENE visible
27 Sep - 05:24:31 10° WNW 05:27:51 78° NNE 05:31:11 10° ESE visible
27 Sep - 07:01:33 10° W 07:04:18 24° SW 07:07:02 10° SSE daylight
27 Sep - 23:46:19 10° S 23:48:31 17° SE 23:50:44 10° E night (unlit)
28 Sep - 01:21:28 10° WSW 01:24:48 81° SSE 01:28:09 10° ENE night (unlit)
28 Sep - 02:58:28 10° W 03:01:41 45° N 03:04:55 10° ENE visible
28 Sep - 04:35:24 10° WNW 04:38:43 60° NNE 04:42:00 10° E visible
28 Sep - 06:12:13 10° WNW 06:15:19 37° SW 06:18:25 10° SE visible
28 Sep - 22:59:02 10° SE 22:59:37 10° SE 23:00:13 10° ESE night (unlit)
29 Sep - 00:32:26 10° SW 00:35:42 55° SSE 00:38:59 10° ENE night (unlit)
29 Sep - 02:09:12 10° W 02:12:27 50° N 02:15:43 10° ENE night (unlit)
29 Sep - 03:46:14 10° WNW 03:49:30 50° N 03:52:45 10° E visible
29 Sep - 05:22:59 10° WNW 05:26:15 56° SSW 05:29:31 10° SE visible
29 Sep - 07:01:30 10° WSW 07:02:21 11° SW 07:03:12 10° SSW daylight
29 Sep - 23:43:32 10° SSW 23:46:37 35° SE 23:49:42 10° ENE night (unlit)
